Regional Weather Roundup
Issued by NWS

Home | Current Version | Previous Version | Graphics & Text | Print | Product List | Glossary On
Versions: 1 2 3 4 5 6 7 8 9 10 11 12 13 14 15 16 17 18 19 20 21 22 23 24 25 26 27 28 29 30 31 32 33 34 35 36 37 38 39 40 41 42 43 44 45 46 47 48 49 50
000
ASUS43 KDMX 291207
RWRIA

WEATHER ROUNDUP FOR IOWA
NATIONAL WEATHER SERVICE DES MOINES IA
700 AM CDT FRI MAY 29 2015

NOTE: "FAIR" INDICATES FEW OR NO CLOUDS BELOW 12,000 FEET WITH NO
SIGNIFICANT WEATHER AND/OR OBSTRUCTIONS TO VISIBILITY.

* - THESE STATIONS ARE NOT NWS STATIONS...THUS NOT UNDER NWS
QUALITY CONTROL.  THEY ALSO DO NOT REPORT WEATHER SUCH
AS PRECIPITATION OR FOG.

IAZ001>003-012>014-020>022-031>034-043>046-291300-
   NORTHWEST IOWA

CITY           SKY/WX    TMP DP  RH WIND       PRES   REMARKS
CARROLL *      CLOUDY    64  63  94 S9G17     29.90R
CHEROKEE *     CLOUDY    64  64 100 S7        29.88R FOG
DENISON *      CLOUDY    64  64 100 S12G23    29.88R FOG
LE MARS *      MOSUNNY   64  63  94 S9        29.87R
ORANGE CITY *  PTSUNNY   64  61  88 SE6       29.86S
SHELDON *      CLOUDY    64  64 100 S9        29.85R
SIOUX CITY     CLOUDY    66  63  90 S8        29.87R
6HR MIN TEMP:  65; 6HR MAX TEMP:  68; 6HR PCP:  0.02;

SPENCER        LGT RAIN  65  64  97 SE5       29.88F
6HR MIN TEMP:  64; 6HR MAX TEMP:  66; 6HR PCP:  0.09;

STORM LAKE *   CLOUDY    63  63 100 S12       29.91R FOG
$$

IAZ055>058-069>071-079>083-090>094-291300-
   SOUTHWEST IOWA

CITY           SKY/WX    TMP DP  RH WIND       PRES   REMARKS
ATLANTIC *     CLOUDY    64  64 100 S8        29.92R
AUDUBON *      MOSUNNY   64  61  88 S12       29.92S
CLARINDA *     PTSUNNY   64  64 100 SW6       29.95R
COUNCIL BLFS * CLOUDY    64  64 100 S10G17    29.91S
CRESTON *      PTSUNNY   61  61 100 CALM      29.94R FOG
HARLAN  *      CLOUDY    64  64 100 S16       29.94R
LAMONI         FOG       65  63  93 S5        29.94S VSB 1/4
6HR MIN TEMP:  65; 6HR MAX TEMP:  67;

RED OAK *      CLOUDY    64  64 100 S6        29.93R
SHENANDOAH *   PTSUNNY   64  64 100 S9        29.93R FOG
$$

IAZ047>049-059>061-072>074-084-291300-
   CENTRAL IOWA

CITY           SKY/WX    TMP DP  RH WIND       PRES   REMARKS
AMES           PTSUNNY   62  61  96 SE3       29.92S FOG
6HR MIN TEMP:  59; 6HR MAX TEMP:  63;

ANKENY *         N/A     63  63 100 CALM      29.92S
CHARITON *     FOG       63  63 100 SE7       29.94F VSB 1
DES MOINES     PTSUNNY   64  61  90 S8        29.92S
6HR MIN TEMP:  63; 6HR MAX TEMP:  65;

GRINNELL*      CLOUDY    64  63  94 S6        29.96R
KNOXVILLE *    CLOUDY    64  63  94 SE6       29.93F
MARSHALLTOWN   PTSUNNY   64  62  93 S6        29.93R
6HR MIN TEMP:  62; 6HR MAX TEMP:  65;

PELLA *        CLOUDY    64  64 100 CALM      29.96S
PERRY *        PTSUNNY   63  61  96 S8        29.91S
$$

IAZ004>006-015-016-023>025-035-036-291300-
   NORTH CENTRAL IOWA

CITY           SKY/WX    TMP DP  RH WIND       PRES   REMARKS
ALGONA *       CLOUDY    64  64 100 SE6       29.91S
CLARION *      MOSUNNY   64  61  88 S12       29.91R
ESTHERVILLE    CLOUDY    64  63  96 S7        29.89S
6HR MIN TEMP:  63; 6HR MAX TEMP:  65; 6HR PCP:  0.16;

FORT DODGE *   MOSUNNY   64  59  82 S7        29.90F
MASON CITY     CLOUDY    65  63  93 S9        29.94R
6HR MIN TEMP:  64; 6HR MAX TEMP:  66;

FOREST CITY *  HVY RAIN  61  61 100 W8        29.92R
IOWA FALLS *     N/A     63  61  94 S6        29.93F
$$

IAZ007>011-017>019-026>030-037>042-050>054-066-291300-
   NORTHEAST IOWA

CITY           SKY/WX    TMP DP  RH WIND       PRES   REMARKS
CEDAR RAPIDS   CLOUDY    65  64  97 SE5       29.95R
6HR MIN TEMP:  64; 6HR MAX TEMP:  66; 6HR PCP: TRACE;

CHARLES CITY * CLOUDY    64  64 100 S8        29.94R
CLINTON *      PTSUNNY   66  63  88 S6        30.00R
DECORAH *      SUNNY     64  63  94 S6        29.94R
DUBUQUE        CLOUDY    64  61  90 SE8       29.97S
6HR MIN TEMP:  63; 6HR MAX TEMP:  65; 6HR PCP:  0.16;

MONTICELLO *   LGT RAIN  66  66 100 SE7       29.96S
OELWEIN *      MOSUNNY   64  64 100 S7        29.96R
WATERLOO       PTSUNNY   64  62  93 S6        29.94R
6HR MIN TEMP:  62; 6HR MAX TEMP:  65;

$$

IAZ064-065-067-068-078-291300-
   EAST CENTRAL IOWA

CITY           SKY/WX    TMP DP  RH WIND       PRES   REMARKS
DAVENPORT      PTSUNNY   69  63  81 S9        29.98R
6HR MIN TEMP:  66; 6HR MAX TEMP:  69; 6HR PCP: TRACE;

IOWA CITY      CLOUDY    65  63  93 SE3       29.97R
6HR MIN TEMP:  64; 6HR MAX TEMP:  66; 6HR PCP: TRACE;

MT. PLEASANT * PTSUNNY   66  66  98 S6        29.96R
MUSCATINE *    SUNNY     68  64  88 S5        29.97R
QUAD CITIES    MOSUNNY   70  64  81 SE5       29.97R
6HR MIN TEMP:  65; 6HR MAX TEMP:  70; 6HR PCP: TRACE;

$$

IAZ062-063-075>077-085>089-095>099-291300-
   SOUTHEAST IOWA

CITY           SKY/WX    TMP DP  RH WIND       PRES   REMARKS
BURLINGTON     CLOUDY    69  66  90 S10       29.96R
6HR MIN TEMP:  66; 6HR MAX TEMP:  70;

FAIRFIELD *    CLOUDY    64  64 100 SE7       29.96R
FORT MADISON * CLOUDY    66  64  94 S8        29.97R
KEOKUK *       CLOUDY    68  66  94 S7        29.96R
OSKALOOSA *    CLOUDY    64  63  96 CALM      29.96R FOG
CENTERVILLE *  MOSUNNY   64  64 100 S3        29.97F
OTTUMWA        CLOUDY    65  64  97 CALM      29.96R
6HR MIN TEMP:  63; 6HR MAX TEMP:  65; 6HR PCP:  0.01;

WASHINGTON *   PTSUNNY   64  64 100 SE5       29.98R
$$

ABBREVIATIONS USED IN REMARKS
   TC - TEMPERATURES IN CELSIUS
  WCI - WIND CHILL INDEX
   HX - HEAT INDEX
  VSB - VISIBILITY
$$




USA.gov is the U.S. government's official web portal to all federal, state and local government web resources and services.